Location: Newark
(48.1500°N, 13.1167°E)
Time: 23:57:26
(UTC+00:00)

XW-2D - Pass Details

Date: 09 December 2021
Orbit: 502 x 522 km, 97.5° (Epoch: 19 January)

Event Time Altitude Azimuth Distance (km) Brightness Sun altitude
Rises 04:28:00 0° 23° (NNE) 2,669 ? -22.0°
Reaches altitude 10° 04:30:23 10° 37° (NE) 1,774 ? -21.6°
Maximum altitude 04:33:37 26° 95° (E) 1,067 ? -21.1°
Drops below altitude 10° 04:36:50 10° 153° (SSE) 1,757 ? -20.5°
Sets 04:39:11 0° 166° (SSE) 2,636 ? -20.1°
